Total_Precipitation_Accumulation
0.33 0.33 0.28 0.29 0.27 0.24 0.22 0.19 0.16 0.13 0.12 0.09 0.07 0.05 0.04 0.04 0.03 0.04 0.03 0.02 0.02 0.02 0.05 0.09 0.14 0.18 0.22 0.26 0.29 0.30 0.27 0.22 0.19 0.19 0.18 0.17 0.17 0.17 0.18 0.19 0.21 0.22 0.22
0.32 0.31 0.30 0.28 0.27 0.23 0.20 0.20 0.18 0.16 0.13 0.11 0.08 0.06 0.04 0.04 0.03 0.03 0.03 0.03 0.02 0.02 0.03 0.06 0.14 0.22 0.28 0.34 0.37 0.36 0.32 0.27 0.24 0.23 0.22 0.20 0.19 0.19 0.20 0.21 0.23 0.24 0.25
0.39 0.34 0.32 0.28 0.26 0.28 0.26 0.23 0.23 0.19 0.15 0.12 0.09 0.08 0.07 0.06 0.05 0.04 0.04 0.03 0.03 0.03 0.03 0.06 0.13 0.20 0.29 0.36 0.40 0.43 0.43 0.36 0.30 0.27 0.25 0.24 0.23 0.22 0.24 0.26 0.28 0.29 0.30
0.55 0.49 0.45 0.38 0.36 0.36 0.37 0.31 0.27 0.26 0.19 0.15 0.12 0.10 0.08 0.07 0.05 0.05 0.05 0.04 0.04 0.03 0.03 0.04 0.08 0.14 0.22 0.28 0.35 0.43 0.48 0.46 0.40 0.36 0.32 0.31 0.29 0.30 0.31 0.33 0.35 0.37 0.38
0.63 0.58 0.52 0.53 0.54 0.48 0.43 0.41 0.33 0.31 0.27 0.22 0.19 0.15 0.12 0.09 0.08 0.07 0.06 0.06 0.05 0.04 0.05 0.05 0.05 0.07 0.12 0.18 0.27 0.41 0.51 0.55 0.50 0.45 0.45 0.44 0.43 0.42 0.44 0.46 0.47 0.48 0.49
0.68 0.68 0.63 0.63 0.64 0.61 0.54 0.48 0.43 0.39 0.35 0.33 0.29 0.21 0.16 0.12 0.10 0.08 0.07 0.08 0.07 0.06 0.06 0.06 0.07 0.07 0.07 0.12 0.21 0.33 0.48 0.57 0.58 0.54 0.53 0.54 0.55 0.56 0.57 0.59 0.59 0.59 0.59
0.78 0.80 0.76 0.77 0.78 0.74 0.67 0.65 0.63 0.55 0.47 0.47 0.43 0.29 0.18 0.13 0.11 0.09 0.09 0.09 0.09 0.10 0.10 0.09 0.10 0.11 0.12 0.15 0.20 0.25 0.33 0.45 0.59 0.64 0.62 0.60 0.62 0.66 0.70 0.72 0.76 0.76 0.75
0.87 0.85 0.86 0.87 0.85 0.85 0.82 0.77 0.75 0.70 0.64 0.62 0.56 0.50 0.33 0.20 0.14 0.12 0.11 0.11 0.11 0.13 0.13 0.14 0.14 0.15 0.17 0.19 0.20 0.20 0.22 0.31 0.49 0.67 0.70 0.67 0.66 0.68 0.76 0.84 0.89 0.94 0.94
1.07 0.99 0.90 0.88 0.86 0.88 0.86 0.86 0.88 0.89 0.84 0.79 0.72 0.73 0.57 0.37 0.26 0.19 0.16 0.15 0.15 0.15 0.17 0.19 0.20 0.22 0.21 0.20 0.19 0.19 0.19 0.23 0.34 0.57 0.74 0.79 0.79 0.81 0.88 0.97 1.05 1.14 1.17
1.22 1.16 1.09 1.01 0.95 0.91 0.86 0.91 0.96 0.98 1.01 0.96 0.88 0.81 0.72 0.58 0.53 0.39 0.27 0.25 0.27 0.25 0.24 0.24 0.24 0.26 0.25 0.24 0.25 0.26 0.29 0.31 0.38 0.58 0.86 1.02 1.09 1.17 1.26 1.35 1.45 1.55 1.54
1.34 1.26 1.20 1.18 1.12 1.07 1.04 1.04 1.05 1.06 1.06 1.04 0.99 0.93 0.90 0.78 0.67 0.63 0.48 0.37 0.37 0.35 0.34 0.32 0.30 0.30 0.30 0.30 0.30 0.36 0.45 0.50 0.57 0.73 0.97 1.21 1.41 1.57 1.71 1.80 1.88 1.96 2.02
1.24 1.19 1.16 1.15 1.12 1.09 1.07 1.05 1.06 1.06 1.05 1.02 0.98 0.94 0.94 0.89 0.79 0.78 0.71 0.54 0.50 0.46 0.47 0.47 0.44 0.41 0.39 0.38 0.39 0.49 0.53 0.59 0.68 0.84 1.08 1.33 1.48 1.59 1.73 1.90 2.02 2.07 2.15
1.09 1.04 1.05 1.05 1.08 1.07 1.07 1.07 1.06 1.03 1.05 1.04 1.01 0.94 0.90 0.83 0.80 0.86 0.88 0.74 0.61 0.51 0.49 0.50 0.49 0.50 0.52 0.53 0.56 0.67 0.65 0.70 0.77 0.89 1.09 1.30 1.38 1.36 1.37 1.46 1.62 1.77 1.87
1.02 1.00 1.03 1.07 1.11 1.12 1.07 1.07 1.05 1.01 1.03 1.01 1.00 0.98 0.94 0.86 0.83 0.84 0.87 0.94 0.90 0.74 0.63 0.57 0.56 0.61 0.65 0.68 0.76 0.84 0.76 0.83 0.83 0.86 0.96 1.10 1.15 1.08 1.02 1.08 1.22 1.37 1.52
1.00 0.97 1.00 1.00 1.01 1.02 0.99 1.00 0.99 0.94 0.91 0.91 0.90 0.91 0.92 0.86 0.84 0.85 0.89 1.01 1.19 1.17 0.96 0.79 0.78 0.80 0.81 0.81 0.87 0.79 0.69 0.80 0.83 0.82 0.85 0.89 0.90 0.88 0.86 0.87 0.92 1.00 1.09
0.92 0.91 0.92 0.91 0.89 0.88 0.89 0.89 0.86 0.81 0.79 0.76 0.76 0.80 0.83 0.83 0.87 0.91 0.98 1.06 1.18 1.32 1.24 0.95 0.83 0.82 0.84 0.82 0.85 0.72 0.64 0.75 0.72 0.71 0.71 0.72 0.73 0.72 0.73 0.77 0.81 0.85 0.89
0.76 0.76 0.80 0.81 0.76 0.73 0.72 0.73 0.72 0.73 0.73 0.70 0.70 0.72 0.74 0.78 0.86 0.91 0.99 1.08 1.17 1.28 1.31 1.08 0.88 0.81 0.79 0.74 0.69 0.59 0.53 0.52 0.50 0.59 0.59 0.58 0.60 0.63 0.62 0.65 0.71 0.77 0.80
0.72 0.70 0.71 0.73 0.70 0.65 0.63 0.64 0.64 0.65 0.70 0.71 0.72 0.75 0.76 0.81 0.89 0.95 1.02 1.07 1.10 1.12 1.13 1.03 0.84 0.73 0.66 0.59 0.54 0.49 0.44 0.41 0.38 0.49 0.50 0.49 0.51 0.53 0.51 0.52 0.57 0.64 0.71
0.73 0.72 0.68 0.68 0.66 0.64 0.64 0.63 0.63 0.63 0.66 0.70 0.75 0.79 0.81 0.85 0.89 0.90 0.91 0.91 0.89 0.87 0.87 0.84 0.72 0.62 0.57 0.53 0.51 0.45 0.40 0.37 0.33 0.36 0.37 0.38 0.43 0.49 0.48 0.49 0.54 0.58 0.60
0.67 0.69 0.67 0.65 0.66 0.67 0.69 0.69 0.71 0.73 0.75 0.77 0.81 0.84 0.84 0.85 0.83 0.82 0.79 0.76 0.74 0.74 0.73 0.74 0.71 0.62 0.56 0.51 0.51 0.47 0.41 0.36 0.33 0.30 0.34 0.34 0.39 0.46 0.46 0.43 0.40 0.40 0.41
0.62 0.64 0.63 0.63 0.68 0.73 0.78 0.79 0.80 0.83 0.88 0.90 0.89 0.86 0.82 0.84 0.81 0.76 0.72 0.68 0.68 0.70 0.74 0.78 0.75 0.65 0.53 0.46 0.42 0.37 0.37 0.36 0.35 0.32 0.35 0.35 0.35 0.34 0.32 0.34 0.36 0.37 0.40
0.64 0.65 0.69 0.72 0.76 0.84 1.06 1.07 0.98 0.94 0.95 0.92 0.88 0.82 0.76 0.77 0.73 0.73 0.72 0.70 0.72 0.77 0.85 0.88 0.78 0.61 0.44 0.36 0.36 0.41 0.47 0.53 0.48 0.32 0.35 0.35 0.33 0.32 0.29 0.30 0.39 0.43 0.46
0.71 0.75 0.79 0.87 0.93 1.01 1.12 1.04 0.97 0.84 0.81 0.78 0.72 0.66 0.62 0.59 0.60 0.55 0.61 0.67 0.70 0.77 0.77 0.70 0.60 0.45 0.39 0.38 0.49 0.60 0.58 0.56 0.44 0.31 0.38 0.43 0.38 0.35 0.32 0.34 0.41 0.39 0.41
0.83 0.92 0.98 1.00 1.00 1.01 0.96 0.83 0.77 0.67 0.61 0.57 0.53 0.47 0.44 0.43 0.44 0.48 0.52 0.59 0.56 0.54 0.52 0.48 0.45 0.44 0.43 0.46 0.56 0.69 0.67 0.60 0.47 0.38 0.40 0.47 0.39 0.37 0.33 0.35 0.40 0.41 0.44
0.92 0.92 0.89 0.84 0.76 0.71 0.66 0.55 0.47 0.41 0.41 0.38 0.35 0.35 0.36 0.34 0.42 0.54 0.56 0.57 0.47 0.40 0.42 0.46 0.52 0.54 0.55 0.52 0.51 0.62 0.70 0.74 0.63 0.44 0.38 0.38 0.35 0.33 0.34 0.34 0.37 0.44 0.43
0.71 0.61 0.51 0.43 0.38 0.34 0.34 0.34 0.33 0.28 0.29 0.29 0.29 0.31 0.39 0.40 0.50 0.60 0.54 0.53 0.46 0.38 0.40 0.42 0.41 0.39 0.38 0.38 0.43 0.47 0.67 0.94 0.79 0.57 0.37 0.43 0.45 0.49 0.63 0.39 0.36 0.38 0.37